Time,TemperatureF,DewpointF,PressureIn,WindDirection,WindDirectionDegrees,WindSpeedMPH,WindSpeedGustMPH,Humidity,HourlyPrecipIn,Conditions,Clouds,dailyrainin,SoftwareType,DateUTC
2013-03-02 00:01:00,70.0,25.0,-100.00,NNE,31,-999.0,-999.0,18,-99.99,,,-99.99,,2013-03-02 08:01:00,
2013-03-02 00:21:00,67.0,26.0,-100.00,NNE,21,-999.0,-999.0,21,-99.99,,,-99.99,,2013-03-02 08:21:00,
2013-03-02 00:31:00,67.0,26.0,-100.00,NNE,21,-999.0,-999.0,21,-99.99,,,-99.99,,2013-03-02 08:31:00,
2013-03-02 00:42:00,67.0,26.0,-100.00,NNE,21,-999.0,-999.0,21,-99.99,,,-99.99,,2013-03-02 08:42:00,
2013-03-02 00:52:00,67.0,26.0,-100.00,North,4,-999.0,-999.0,21,-99.99,,,-99.99,,2013-03-02 08:52:00,
2013-03-02 01:01:00,67.0,26.0,-100.00,North,4,-999.0,-999.0,21,-99.99,,,-99.99,,2013-03-02 09:01:00,
2013-03-02 01:11:00,67.0,26.0,-100.00,North,4,-999.0,-999.0,21,-99.99,,,-99.99,,2013-03-02 09:11:00,
2013-03-02 01:21:00,68.0,25.0,-100.00,NNE,25,-999.0,-999.0,20,-99.99,,,-99.99,,2013-03-02 09:21:00,
2013-03-02 01:31:00,68.0,25.0,-100.00,NNE,25,-999.0,-999.0,20,-99.99,,,-99.99,,2013-03-02 09:31:00,
2013-03-02 01:42:00,68.0,25.0,-100.00,NNE,25,-999.0,-999.0,20,-99.99,,,-99.99,,2013-03-02 09:42:00,
2013-03-02 01:52:00,66.0,26.0,-100.00,NNE,23,-999.0,-999.0,22,-99.99,,,-99.99,,2013-03-02 09:52:00,
2013-03-02 02:01:00,66.0,26.0,-100.00,NNE,23,-999.0,-999.0,22,-99.99,,,-99.99,,2013-03-02 10:01:00,
2013-03-02 02:15:00,66.0,26.0,-100.00,NNE,23,-999.0,-999.0,22,-99.99,,,-99.99,,2013-03-02 10:15:00,
2013-03-02 02:21:00,68.0,25.0,-100.00,NE,54,-999.0,-999.0,20,-99.99,,,-99.99,,2013-03-02 10:21:00,
2013-03-02 02:31:00,68.0,25.0,-100.00,NE,54,-999.0,-999.0,20,-99.99,,,-99.99,,2013-03-02 10:31:00,
2013-03-02 02:52:00,67.0,25.0,-100.00,NE,49,-999.0,-999.0,20,-99.99,,,0.00,,2013-03-02 10:52:00,
2013-03-02 03:01:00,67.0,25.0,-100.00,NE,49,-999.0,-999.0,20,-99.99,,,0.00,,2013-03-02 11:01:00,
2013-03-02 03:21:00,68.0,24.0,-100.00,East,85,-999.0,-999.0,19,-99.99,,,-99.99,,2013-03-02 11:21:00,
2013-03-02 03:31:00,68.0,24.0,-100.00,East,85,-999.0,-999.0,19,-99.99,,,-99.99,,2013-03-02 11:31:00,
2013-03-02 03:52:00,68.0,27.0,-100.00,NNE,18,-999.0,-999.0,21,-99.99,,,-99.99,,2013-03-02 11:52:00,
2013-03-02 04:02:00,68.0,27.0,-100.00,NNE,18,-999.0,-999.0,21,-99.99,,,-99.99,,2013-03-02 12:02:00,
2013-03-02 04:21:00,65.0,26.0,-100.00,North,0,-999.0,-999.0,23,-99.99,,,-99.99,,2013-03-02 12:21:00,
2013-03-02 04:32:00,65.0,26.0,-100.00,North,0,-999.0,-999.0,23,-99.99,,,-99.99,,2013-03-02 12:32:00,
2013-03-02 04:43:00,65.0,26.0,-100.00,North,0,-999.0,-999.0,23,-99.99,,,-99.99,,2013-03-02 12:43:00,
2013-03-02 04:53:00,65.0,26.0,-100.00,North,10,-999.0,-999.0,23,-99.99,,,-99.99,,2013-03-02 12:53:00,
2013-03-02 05:01:00,65.0,26.0,-100.00,North,10,-999.0,-999.0,23,-99.99,,,-99.99,,2013-03-02 13:01:00,
2013-03-02 05:11:00,65.0,26.0,-100.00,North,10,-999.0,-999.0,23,-99.99,,,-99.99,,2013-03-02 13:11:00,
2013-03-02 05:21:00,64.0,27.0,-100.00,NNE,25,-999.0,-999.0,25,-99.99,,,-99.99,,2013-03-02 13:21:00,
2013-03-02 05:31:00,64.0,27.0,-100.00,NNE,25,-999.0,-999.0,25,-99.99,,,-99.99,,2013-03-02 13:31:00,
2013-03-02 05:42:00,64.0,27.0,-100.00,NNE,25,-999.0,-999.0,25,-99.99,,,-99.99,,2013-03-02 13:42:00,
2013-03-02 05:52:00,63.0,27.0,-100.00,NNE,26,-999.0,-999.0,25,-99.99,,,-99.99,,2013-03-02 13:52:00,
2013-03-02 06:01:00,63.0,27.0,-100.00,NNE,26,-999.0,-999.0,25,-99.99,,,-99.99,,2013-03-02 14:01:00,
2013-03-02 06:11:00,63.0,27.0,-100.00,NNE,26,-999.0,-999.0,25,-99.99,,,-99.99,,2013-03-02 14:11:00,
2013-03-02 06:21:00,62.0,27.0,-100.00,NNE,24,-999.0,-999.0,26,-99.99,,,-99.99,,2013-03-02 14:21:00,
2013-03-02 06:31:00,62.0,27.0,-100.00,NNE,24,-999.0,-999.0,26,-99.99,,,-99.99,,2013-03-02 14:31:00,
2013-03-02 06:42:00,62.0,27.0,-100.00,NNE,24,-999.0,-999.0,26,-99.99,,,-99.99,,2013-03-02 14:42:00,
2013-03-02 06:52:00,63.0,28.0,-100.00,NNE,20,-999.0,-999.0,26,-99.99,,,-99.99,,2013-03-02 14:52:00,
2013-03-02 07:01:00,63.0,28.0,-100.00,NNE,20,-999.0,-999.0,26,-99.99,,,-99.99,,2013-03-02 15:01:00,
2013-03-02 07:11:00,63.0,28.0,-100.00,NNE,20,-999.0,-999.0,26,-99.99,,,-99.99,,2013-03-02 15:11:00,
2013-03-02 07:21:00,64.0,30.0,-100.00,NNE,22,-999.0,-999.0,28,-99.99,,,-99.99,,2013-03-02 15:21:00,
2013-03-02 07:31:00,64.0,30.0,-100.00,NNE,22,-999.0,-999.0,28,-99.99,,,-99.99,,2013-03-02 15:31:00,
2013-03-02 07:42:00,64.0,30.0,-100.00,NNE,22,-999.0,-999.0,28,-99.99,,,-99.99,,2013-03-02 15:42:00,
2013-03-02 07:52:00,64.0,30.0,-100.00,NNE,22,-999.0,-999.0,28,-99.99,,,-99.99,,2013-03-02 15:52:00,
2013-03-02 08:01:00,64.0,30.0,-100.00,NNE,22,-999.0,-999.0,28,-99.99,,,-99.99,,2013-03-02 16:01:00,
2013-03-02 10:52:00,82.0,28.0,-100.00,SSW,208,-999.0,-999.0,14,-99.99,,,-99.99,,2013-03-02 18:52:00,
2013-03-02 11:01:00,82.0,28.0,-100.00,SSW,208,-999.0,-999.0,14,-99.99,,,-99.99,,2013-03-02 19:01:00,
2013-03-02 11:31:00,82.0,28.0,-100.00,SSW,208,-999.0,-999.0,14,-99.99,,,-99.99,,2013-03-02 19:31:00,
2013-03-02 11:52:00,80.0,28.0,-100.00,SSW,193,-999.0,-999.0,15,-99.99,,,-99.99,,2013-03-02 19:52:00,
2013-03-02 12:01:00,80.0,28.0,-100.00,SSW,193,-999.0,-999.0,15,-99.99,,,-99.99,,2013-03-02 20:01:00,
2013-03-02 12:11:00,80.0,28.0,-100.00,SSW,193,-999.0,-999.0,15,-99.99,,,-99.99,,2013-03-02 20:11:00,
2013-03-02 12:21:00,80.0,30.0,-100.00,WSW,238,-999.0,-999.0,16,-99.99,,,-99.99,,2013-03-02 20:21:00,
2013-03-02 12:31:00,80.0,30.0,-100.00,WSW,238,-999.0,-999.0,16,-99.99,,,-99.99,,2013-03-02 20:31:00,
2013-03-02 12:42:00,80.0,30.0,-100.00,WSW,238,-999.0,-999.0,16,-99.99,,,-99.99,,2013-03-02 20:42:00,
2013-03-02 12:52:00,78.0,31.0,-100.00,SSW,204,-999.0,-999.0,18,-99.99,,,-99.99,,2013-03-02 20:52:00,
2013-03-02 13:02:00,78.0,31.0,-100.00,SSW,204,-999.0,-999.0,18,-99.99,,,-99.99,,2013-03-02 21:02:00,
2013-03-02 13:11:00,78.0,31.0,-100.00,SSW,204,-999.0,-999.0,18,-99.99,,,-99.99,,2013-03-02 21:11:00,
2013-03-02 13:21:00,76.0,28.0,-100.00,SSW,197,-999.0,-999.0,17,-99.99,,,-99.99,,2013-03-02 21:21:00,
2013-03-02 13:31:00,76.0,28.0,-100.00,SSW,197,-999.0,-999.0,17,-99.99,,,-99.99,,2013-03-02 21:31:00,
2013-03-02 13:42:00,76.0,28.0,-100.00,SSW,197,-999.0,-999.0,17,-99.99,,,-99.99,,2013-03-02 21:42:00,
2013-03-02 13:52:00,78.0,28.0,-100.00,South,178,-999.0,-999.0,16,-99.99,,,-99.99,,2013-03-02 21:52:00,
2013-03-02 14:01:00,78.0,28.0,-100.00,South,178,-999.0,-999.0,16,-99.99,,,-99.99,,2013-03-02 22:01:00,
2013-03-02 14:11:00,78.0,28.0,-100.00,South,178,-999.0,-999.0,16,-99.99,,,-99.99,,2013-03-02 22:11:00,
2013-03-02 14:21:00,77.0,30.0,-100.00,South,169,-999.0,-999.0,18,-99.99,,,-99.99,,2013-03-02 22:21:00,
2013-03-02 14:31:00,77.0,30.0,-100.00,South,169,-999.0,-999.0,18,-99.99,,,-99.99,,2013-03-02 22:31:00,
2013-03-02 14:42:00,77.0,30.0,-100.00,South,169,-999.0,-999.0,18,-99.99,,,-99.99,,2013-03-02 22:42:00,
2013-03-02 14:52:00,75.0,26.0,-100.00,WSW,251,-999.0,-999.0,16,-99.99,,,0.00,,2013-03-02 22:52:00,
2013-03-02 15:01:00,75.0,26.0,-100.00,WSW,251,-999.0,-999.0,16,-99.99,,,0.00,,2013-03-02 23:01:00,
2013-03-02 15:11:00,75.0,26.0,-100.00,WSW,251,-999.0,-999.0,16,-99.99,,,0.00,,2013-03-02 23:11:00,
2013-03-02 15:21:00,78.0,28.0,-100.00,West,260,-999.0,-999.0,16,-99.99,,,-99.99,,2013-03-02 23:21:00,
2013-03-02 15:31:00,78.0,28.0,-100.00,West,260,-999.0,-999.0,16,-99.99,,,-99.99,,2013-03-02 23:31:00,
2013-03-02 15:42:00,78.0,28.0,-100.00,West,260,-999.0,-999.0,16,-99.99,,,-99.99,,2013-03-02 23:42:00,
2013-03-02 15:52:00,77.0,24.0,-100.00,SW,232,-999.0,-999.0,14,-99.99,,,-99.99,,2013-03-02 23:52:00,
2013-03-02 16:02:00,77.0,24.0,-100.00,SW,232,-999.0,-999.0,14,-99.99,,,-99.99,,2013-03-03 00:02:00,
2013-03-02 16:11:00,77.0,24.0,-100.00,SW,232,-999.0,-999.0,14,-99.99,,,-99.99,,2013-03-03 00:11:00,
2013-03-02 16:22:00,77.0,24.0,-100.00,SW,232,-999.0,-999.0,14,-99.99,,,-99.99,,2013-03-03 00:22:00,
2013-03-02 16:31:00,77.0,24.0,-100.00,SW,232,-999.0,-999.0,14,-99.99,,,-99.99,,2013-03-03 00:31:00,
2013-03-02 16:52:00,75.0,27.0,-100.00,NW,310,-999.0,-999.0,17,-99.99,,,-99.99,,2013-03-03 00:52:00,
2013-03-02 17:01:00,75.0,27.0,-100.00,NW,310,-999.0,-999.0,17,-99.99,,,-99.99,,2013-03-03 01:01:00,
2013-03-02 17:11:00,75.0,27.0,-100.00,NW,310,-999.0,-999.0,17,-99.99,,,-99.99,,2013-03-03 01:11:00,
2013-03-02 17:21:00,73.0,27.0,-100.00,NW,309,-999.0,-999.0,18,-99.99,,,-99.99,,2013-03-03 01:21:00,
2013-03-02 17:31:00,73.0,27.0,-100.00,NW,309,-999.0,-999.0,18,-99.99,,,-99.99,,2013-03-03 01:31:00,
2013-03-02 17:42:00,73.0,27.0,-100.00,NW,309,-999.0,-999.0,18,-99.99,,,-99.99,,2013-03-03 01:42:00,
2013-03-02 17:52:00,67.0,25.0,-100.00,NNW,330,-999.0,-999.0,20,-99.99,,,-99.99,,2013-03-03 01:52:00,
2013-03-02 18:01:00,67.0,25.0,-100.00,NNW,330,-999.0,-999.0,20,-99.99,,,-99.99,,2013-03-03 02:01:00,
2013-03-02 18:11:00,67.0,25.0,-100.00,NNW,330,-999.0,-999.0,20,-99.99,,,-99.99,,2013-03-03 02:11:00,
2013-03-02 18:21:00,66.0,24.0,-100.00,NNW,342,-999.0,-999.0,20,-99.99,,,-99.99,,2013-03-03 02:21:00,
2013-03-02 18:31:00,66.0,24.0,-100.00,NNW,342,-999.0,-999.0,20,-99.99,,,-99.99,,2013-03-03 02:31:00,
2013-03-02 18:42:00,66.0,24.0,-100.00,NNW,342,-999.0,-999.0,20,-99.99,,,-99.99,,2013-03-03 02:42:00,
2013-03-02 18:52:00,64.0,22.0,-100.00,NNW,342,-999.0,-999.0,20,-99.99,,,-99.99,,2013-03-03 02:52:00,
2013-03-02 19:01:00,64.0,22.0,-100.00,NNW,342,-999.0,-999.0,20,-99.99,,,-99.99,,2013-03-03 03:01:00,
2013-03-02 19:11:00,64.0,22.0,-100.00,NNW,342,-999.0,-999.0,20,-99.99,,,-99.99,,2013-03-03 03:11:00,
2013-03-02 19:21:00,66.0,21.0,-100.00,North,359,-999.0,-999.0,18,-99.99,,,-99.99,,2013-03-03 03:21:00,
2013-03-02 19:31:00,66.0,21.0,-100.00,North,359,-999.0,-999.0,18,-99.99,,,-99.99,,2013-03-03 03:31:00,
2013-03-02 19:42:00,66.0,21.0,-100.00,North,359,-999.0,-999.0,18,-99.99,,,-99.99,,2013-03-03 03:42:00,
2013-03-02 19:52:00,65.0,23.0,-100.00,NNW,345,-999.0,-999.0,20,-99.99,,,-99.99,,2013-03-03 03:52:00,
2013-03-02 20:01:00,65.0,23.0,-100.00,NNW,345,-999.0,-999.0,20,-99.99,,,-99.99,,2013-03-03 04:01:00,
2013-03-02 20:11:00,65.0,23.0,-100.00,NNW,345,-999.0,-999.0,20,-99.99,,,-99.99,,2013-03-03 04:11:00,
2013-03-02 20:21:00,64.0,22.0,-100.00,NNW,340,-999.0,-999.0,20,-99.99,,,-99.99,,2013-03-03 04:21:00,
2013-03-02 20:31:00,64.0,22.0,-100.00,NNW,340,-999.0,-999.0,20,-99.99,,,-99.99,,2013-03-03 04:31:00,
2013-03-02 20:42:00,64.0,22.0,-100.00,NNW,340,-999.0,-999.0,20,-99.99,,,-99.99,,2013-03-03 04:42:00,
2013-03-02 20:52:00,66.0,24.0,-100.00,NNW,339,-999.0,-999.0,20,-99.99,,,-99.99,,2013-03-03 04:52:00,
2013-03-02 21:01:00,66.0,24.0,-100.00,NNW,339,-999.0,-999.0,20,-99.99,,,-99.99,,2013-03-03 05:01:00,
2013-03-02 21:11:00,66.0,24.0,-100.00,NNW,339,-999.0,-999.0,20,-99.99,,,-99.99,,2013-03-03 05:11:00,
2013-03-02 21:22:00,66.0,26.0,-100.00,North,360,-999.0,-999.0,22,-99.99,,,-99.99,,2013-03-03 05:22:00,
2013-03-02 21:32:00,66.0,26.0,-100.00,North,360,-999.0,-999.0,22,-99.99,,,-99.99,,2013-03-03 05:32:00,
2013-03-02 21:42:00,66.0,26.0,-100.00,North,360,-999.0,-999.0,22,-99.99,,,-99.99,,2013-03-03 05:42:00,
2013-03-02 21:52:00,65.0,25.0,-100.00,North,360,-999.0,-999.0,22,-99.99,,,-99.99,,2013-03-03 05:52:00,
2013-03-02 22:01:00,65.0,25.0,-100.00,North,360,-999.0,-999.0,22,-99.99,,,-99.99,,2013-03-03 06:01:00,
2013-03-02 22:11:00,65.0,25.0,-100.00,North,360,-999.0,-999.0,22,-99.99,,,-99.99,,2013-03-03 06:11:00,
2013-03-02 22:21:00,65.0,25.0,-100.00,North,360,-999.0,-999.0,22,-99.99,,,-99.99,,2013-03-03 06:21:00,
2013-03-02 22:31:00,65.0,25.0,-100.00,North,360,-999.0,-999.0,22,-99.99,,,-99.99,,2013-03-03 06:31:00,
2013-03-02 22:52:00,65.0,23.0,-100.00,WSW,243,-999.0,-999.0,20,-99.99,,,-99.99,,2013-03-03 06:52:00,
2013-03-02 23:01:00,65.0,23.0,-100.00,WSW,243,-999.0,-999.0,20,-99.99,,,-99.99,,2013-03-03 07:01:00,
2013-03-02 23:21:00,65.0,23.0,-100.00,North,360,-999.0,-999.0,20,-99.99,,,-99.99,,2013-03-03 07:21:00,
2013-03-02 23:31:00,65.0,23.0,-100.00,North,360,-999.0,-999.0,20,-99.99,,,-99.99,,2013-03-03 07:31:00,